Location: Lake Crest
(37.6062°N, 88.9176°W)
Time: 03:18:15
(UTC+00:00)

GRACE-FO 2 - Pass Details

Date: 15 December 2019
Orbit: 480 x 507 km, 89.0° (Epoch: 17 January)

Event Time Altitude Azimuth Distance (km) Brightness Sun altitude
Rises 11:10:52 0° 179° (S) 2,582 8.4 -21.5°
Reaches altitude 10° 11:12:57 10° 180° (S) 1,707 7.5 -21.1°
Maximum altitude 11:16:40 83° 267° (W) 515 4.5 -20.4°
Enters shadow 11:18:15 33° 354° (N) 869 5.6 -20.1°
